User: anonymous
Location: Caltech
(34.1382°N, 118.1253°W)
Time: 01:24:26
(UTC-07:00)
Language:

OAO 2 Rocket - Orbit

View from above orbital plane
View from above orbital plane
View from above satellite
View from above satellite

Ground track
Ground track

The orbit data is extracted from the following two-line orbital elements,

1 03598U 68110B   14204.46718426  .00000085  00000-0  24332-4 0  6673
2 03598 034.9930 199.2654 0050190 274.0377 221.8278 14.53641172412142
Epoch (UTC): 23 July 2014 11:12:44
Eccentricity: 0.0050190
inclination: 34.9930°
perigee height: 678 km
apogee height: 749 km
right ascension of ascending node: 199.2654°
argument of perigee: 274.0377°
revolutions per day: 14.53641172
mean anomaly at epoch: 221.8278°
orbit number at epoch: 41214

The dashed part of the orbit path shows where the satellite is in the earth's shadow,  

DLR